Weather History for Eureka, NU

Change the Weather History Date:

Saturday, February 15, 2014

  Actual Average Record
Temperature  
Mean Temperature -48 °F -  
Max Temperature -45 °F -30 °F -16 °F (2005)
Min Temperature -50 °F -43 °F -54 °F (1997)
Degree Days  
Heating Degree Days 112    
Moisture  
Dew Point -51 °F    
Average Humidity 83    
Maximum Humidity 100    
Minimum Humidity 63    
Precipitation  
Precipitation 0.00 in 0.00 in - ()
Sea Level Pressure  
Sea Level Pressure 30.04 in    
Wind  
Wind Speed 0 mph ()    
Max Wind Speed 0 mph    
Max Gust Speed -    
Visibility 15.0 miles    
Events Snow    
Averages and records for this station are not official NWS values.
T = Trace of Precipitation, MM = Missing Value Source: Averaged Metar Reports

Daily Weather History Graph

Daily Weather History Graph

Search for Another Location

Airport:

Trip Planner

Search our weather history database for the weather conditions in past years. The results will help you decide how hot, cold, wet, or windy it might be!

Date:

Astronomy

Dec. 31, 1969 Rise Set
Actual Time Sun does not rise Sun does not rise
Civil Twilight 8:38 AM CST 3:19 PM CST
Nautical Twilight 6:07 AM CST 5:52 PM CST
Astronomical Twilight 3:44 AM CST 8:18 PM CST
Moon 4:36 PM CST (2/15) 8:45 AM CST (2/15)
Length of Visible Light 6h 40m
Length of Day
0h 00m
Waxing Gibbous, 99% of the Moon is Illuminated
Feb 15
Waxing Gibbous
Feb 22
Last Quarter
Mar 1
New
Mar 8
First Quarter
Mar 16
Full

Hourly Weather History & Observations

Time (CST) Temp. Dew Point Humidity Pressure Visibility Wind Dir Wind Speed Gust Speed Precip Events Conditions
12:00 AM -48 °F -52 °F 63% 30.15 in 15 mi Calm Calm - - Snow Snow
12:00 AM -49.0 °F -52.6 °F 81% 30.15 in 15.0 mi Calm Calm - N/A   Clear
1:00 AM -49.0 °F -50.8 °F 90% 30.15 in 15.0 mi Calm Calm - N/A   Clear
2:00 AM -49.0 °F -50.8 °F 90% 30.14 in 15.0 mi Calm Calm - N/A   Clear
3:00 AM -47.2 °F -50.8 °F 81% 30.13 in 15.0 mi Calm Calm - N/A   Clear
4:00 AM -49.0 °F -50.8 °F 90% 30.13 in 15.0 mi Calm Calm - N/A   Clear
5:00 AM -47.2 °F -50.8 °F 81% 30.11 in 15.0 mi Calm Calm - N/A   Clear
6:00 AM -49 °F -52 °F 73% 30.09 in 15 mi Calm Calm - - Snow Snow
6:00 AM -49.0 °F -52.6 °F 81% 30.09 in 15.0 mi Calm Calm - N/A   Clear
7:00 AM -47.2 °F -50.8 °F 81% 30.08 in 15.0 mi Calm Calm - N/A   Clear
8:00 AM -49.0 °F -50.8 °F 90% 30.07 in 15.0 mi Calm Calm - N/A   Clear
9:00 AM -49.0 °F -50.8 °F 90% 30.06 in 15.0 mi Calm Calm - N/A   Clear
10:00 AM -49.0 °F - N/A% 30.04 in 15.0 mi Calm Calm - N/A   Clear
11:00 AM -49.0 °F - N/A% 30.03 in 15.0 mi Calm Calm - N/A   Clear
12:00 PM -48 °F -51 °F 70% 30.02 in 15 mi Calm Calm - - Snow Snow
12:00 PM -49.0 °F -50.8 °F 90% 30.02 in 15.0 mi Calm Calm - N/A   Clear
1:00 PM -49.0 °F - N/A% 30.00 in 15.0 mi Calm Calm - N/A   Clear
2:00 PM -49.0 °F - N/A% 29.99 in 15.0 mi Calm Calm - N/A   Clear
3:00 PM -49.0 °F -49.0 °F 100% 29.97 in 15.0 mi Calm Calm - N/A   Clear
4:00 PM -49.0 °F - N/A% 29.96 in 15.0 mi Calm Calm - N/A   Clear
5:00 PM -49.0 °F - N/A% 29.96 in 15.0 mi Calm Calm - N/A   Clear
6:00 PM -49 °F - % 29.95 in 15 mi Calm Calm - - Snow Snow
6:00 PM -49.0 °F - N/A% 29.95 in 15.0 mi Calm Calm - N/A   Clear
7:00 PM -49.0 °F - N/A% 29.94 in 15.0 mi Calm Calm - N/A   Clear
8:00 PM -49.0 °F - N/A% 29.92 in 15.0 mi Calm Calm - N/A   Clear
9:00 PM -49.0 °F - N/A% 29.91 in 15.0 mi Calm Calm - N/A   Clear